Date String (YYYY-MM-DD hh:mm:ss) UTC,Instrument flags,Ambient pressure (hPa),Sample flow (lpm),Bypass flow (lpm),Sample temperature (°C),Ambient temperature (°C),ASC tube jacket temperature (°C),LED temperature (°C),Box temperature (°C),Sample RH (%),Span deviation,Mass concentration (μg/m³),Mass concentration (μg/m³),Mass concentration (μg/m³)
DateTimeUTC,F1_M11,P_M11,Q1_M11,Q2_M11,T1_M11,T2_M11,T3_M11,T4_M11,T5_M11,U1_M11,ZSPAN_M11,X2_M11,X0_M11,X1_M11
2023-01-06 10:00:00,,0820.9,4.99,0.00,22.6,22.7,00.0,31.3,24.5,09.0,0000.0,0005.72,0010.93,0005.06
2023-01-06 10:01:00,,0821.0,5.00,0.00,22.7,23.1,00.0,31.3,24.7,08.9,0000.0,0005.73,0011.14,0005.00
2023-01-06 10:02:00,,0821.0,4.99,0.00,22.7,22.7,00.0,31.4,24.7,08.9,0000.0,0005.72,0011.38,0004.92
2023-01-06 10:03:00,,0821.0,4.99,0.00,22.7,22.3,00.0,31.4,24.6,08.8,0000.0,0005.71,0012.21,0004.85
2023-01-06 10:04:00,,0821.0,5.00,0.00,22.7,21.9,00.0,31.4,24.5,08.8,0000.0,0005.73,0013.03,0004.80
2023-01-06 10:05:00,,0821.0,5.00,0.00,22.7,21.6,00.0,31.4,24.4,08.7,0000.0,0005.73,0013.08,0004.78
2023-01-06 10:06:00,,0820.9,5.01,0.00,22.6,21.4,00.0,31.4,24.3,08.7,0000.0,0005.74,0013.34,0004.78
2023-01-06 10:07:00,,0820.9,4.99,0.00,22.6,21.2,00.0,31.4,24.2,08.7,0000.0,0005.73,0013.75,0004.76
2023-01-06 10:08:00,,0820.9,5.01,0.00,22.5,21.0,00.0,31.4,24.2,08.7,0000.0,0005.73,0013.96,0004.68
2023-01-06 10:09:00,,0820.9,4.99,0.00,22.5,21.0,00.0,31.4,24.2,08.8,0000.0,0005.63,0014.34,0004.63
2023-01-06 10:10:00,,0820.9,5.00,0.00,22.5,20.9,00.0,31.4,24.1,08.8,0000.0,0005.54,0014.23,0004.62
2023-01-06 10:11:00,,0820.8,5.00,0.00,22.5,20.9,00.0,31.4,24.1,08.8,0000.0,0005.46,0013.97,0004.62
2023-01-06 10:12:00,,0820.8,5.00,0.00,22.4,20.9,00.0,31.3,24.1,08.9,0000.0,0005.39,0013.78,0004.61
2023-01-06 10:13:00,,0820.8,5.00,0.00,22.4,20.8,00.0,31.3,24.1,08.9,0000.0,0005.32,0014.14,0004.62
2023-01-06 10:14:00,,0820.8,5.00,0.00,22.4,20.8,00.0,31.3,24.0,08.9,0000.0,0005.29,0013.79,0004.63
2023-01-06 10:15:00,,0820.8,5.00,0.00,22.4,20.8,00.0,31.3,24.0,09.0,0000.0,0005.28,0012.87,0004.65
2023-01-06 10:16:00,,0820.8,5.02,0.00,22.4,21.2,00.0,31.3,24.1,09.0,0000.0,0005.28,0012.90,0004.63
2023-01-06 10:17:00,,0820.8,5.01,0.00,22.5,22.2,00.0,31.2,24.4,09.0,0000.0,0005.27,0012.79,0004.60
2023-01-06 10:18:00,,0820.9,5.00,0.00,22.6,23.1,00.0,31.2,24.6,08.9,0000.0,0005.29,0012.59,0004.61
2023-01-06 10:19:00,,0820.9,4.99,0.00,22.7,23.0,00.0,31.3,24.7,08.8,0000.0,0005.28,0012.51,0004.63
2023-01-06 10:20:00,,0820.9,5.00,0.00,22.7,22.5,00.0,31.4,24.6,08.8,0000.0,0005.31,0012.01,0004.64
2023-01-06 10:21:00,,0820.9,5.00,0.00,22.7,22.1,00.0,31.4,24.5,08.7,0000.0,0005.30,0010.59,0004.63
2023-01-06 10:22:00,,0820.9,5.00,0.00,22.7,21.8,00.0,31.4,24.4,08.7,0000.0,0005.28,0010.11,0004.62
2023-01-06 10:23:00,,0820.9,5.00,0.00,22.6,21.5,00.0,31.4,24.4,08.7,0000.0,0005.26,0010.25,0004.61
2023-01-06 10:24:00,,0820.9,5.01,0.00,22.6,21.4,00.0,31.4,24.3,08.7,0000.0,0005.27,0009.95,0004.60
2023-01-06 10:25:00,,0820.9,5.01,0.00,22.6,21.3,00.0,31.4,24.3,08.7,0000.0,0005.24,0009.54,0004.58
2023-01-06 10:26:00,,0820.9,5.00,0.00,22.6,21.2,00.0,31.4,24.3,08.7,0000.0,0005.21,0009.49,0004.55
2023-01-06 10:27:00,,0820.9,4.99,0.00,22.6,21.1,00.0,31.4,24.2,08.8,0000.0,0005.17,0009.36,0004.54
2023-01-06 10:28:00,,0820.8,5.00,0.00,22.5,21.1,00.0,31.4,24.2,08.7,0000.0,0005.08,0009.45,0004.48
2023-01-06 10:29:00,,0820.8,5.00,0.00,22.5,21.0,00.0,31.4,24.2,08.7,0000.0,0005.01,0009.40,0004.44
2023-01-06 10:30:00,,0820.7,5.01,0.00,22.5,21.0,00.0,31.4,24.1,08.6,0000.0,0004.93,0009.27,0004.39
2023-01-06 10:31:00,,0820.7,5.00,0.00,22.5,21.0,00.0,31.4,24.1,08.6,0000.0,0004.82,0009.05,0004.33
2023-01-06 10:32:00,,0820.7,5.01,0.00,22.5,21.0,00.0,31.3,24.1,08.6,0000.0,0004.77,0009.04,0004.30
2023-01-06 10:33:00,,0820.7,5.00,0.00,22.4,20.9,00.0,31.3,24.1,08.6,0000.0,0004.74,0009.01,0004.27
2023-01-06 10:34:00,,0820.7,5.00,0.00,22.4,20.9,00.0,31.3,24.1,08.6,0000.0,0004.71,0008.77,0004.24
2023-01-06 10:35:00,,0820.8,5.00,0.00,22.5,21.6,00.0,31.3,24.2,08.6,0000.0,0004.67,0008.30,0004.21
2023-01-06 10:36:00,,0820.7,5.01,0.00,22.6,22.5,00.0,31.2,24.5,08.5,0000.0,0004.63,0008.24,0004.18
2023-01-06 10:37:00,,0820.7,4.99,0.00,22.7,23.0,00.0,31.3,24.7,08.3,0000.0,0004.52,0008.06,0004.13
2023-01-06 10:38:00,,0820.7,5.00,0.00,22.7,22.7,00.0,31.3,24.7,08.2,0000.0,0004.43,0007.92,0004.05
2023-01-06 10:39:00,,0820.7,5.00,0.00,22.7,22.3,00.0,31.4,24.6,08.4,0000.0,0004.35,0007.58,0003.96
2023-01-06 10:40:00,,0820.8,5.00,0.00,22.7,21.9,00.0,31.4,24.5,08.5,0000.0,0004.25,0007.01,0003.89
2023-01-06 10:41:00,,0820.9,5.02,0.00,22.7,21.7,00.0,31.4,24.4,08.6,0000.0,0004.20,0006.65,0003.86
2023-01-06 10:42:00,,0820.9,5.00,0.00,22.6,21.5,00.0,31.4,24.4,08.6,0000.0,0004.21,0007.34,0003.86
2023-01-06 10:43:00,,0821.0,5.00,0.00,22.6,21.3,00.0,31.4,24.3,08.6,0000.0,0004.24,0007.49,0003.86
2023-01-06 10:44:00,,0820.9,5.00,0.00,22.6,21.1,00.0,31.4,24.3,08.7,0000.0,0004.25,0007.57,0003.85
2023-01-06 10:45:00,,0820.9,5.00,0.00,22.6,21.1,00.0,31.4,24.2,08.6,0000.0,0004.23,0007.58,0003.84
2023-01-06 10:46:00,,0820.9,4.99,0.00,22.6,21.1,00.0,31.4,24.2,08.6,0000.0,0004.19,0007.51,0003.82
2023-01-06 10:47:00,,0820.9,5.00,0.00,22.5,21.0,00.0,31.4,24.2,08.5,0000.0,0004.17,0007.50,0003.78
2023-01-06 10:48:00,,0820.9,5.01,0.00,22.5,21.0,00.0,31.4,24.1,08.6,0000.0,0004.15,0007.45,0003.77
2023-01-06 10:49:00,,0820.9,5.00,0.00,22.5,20.9,00.0,31.4,24.1,08.7,0000.0,0004.18,0007.48,0003.79
2023-01-06 10:50:00,,0820.9,5.00,0.00,22.4,20.9,00.0,31.3,24.1,08.7,0000.0,0004.20,0007.49,0003.83
2023-01-06 10:51:00,,0820.8,5.01,0.00,22.4,20.9,00.0,31.3,24.1,08.7,0000.0,0004.22,0007.58,0003.84
2023-01-06 10:52:00,,0820.8,5.01,0.00,22.4,20.9,00.0,31.3,24.1,08.7,0000.0,0004.22,0007.59,0003.82
2023-01-06 10:53:00,,0820.8,5.00,0.00,22.4,21.0,00.0,31.3,24.1,08.7,0000.0,0004.19,0007.46,0003.79
2023-01-06 10:54:00,,0820.9,5.00,0.00,22.4,21.4,00.0,31.3,24.2,08.8,0000.0,0004.14,0007.04,0003.76
2023-01-06 10:55:00,,0820.9,4.99,0.00,22.5,22.4,00.0,31.2,24.5,08.8,0000.0,0004.09,0006.90,0003.73
2023-01-06 10:56:00,,0820.9,5.00,0.00,22.6,23.0,00.0,31.3,24.6,08.7,0000.0,0004.09,0007.07,0003.73
2023-01-06 10:57:00,,0820.9,5.00,0.00,22.7,22.8,00.0,31.3,24.6,08.7,0000.0,0004.11,0007.18,0003.74
2023-01-06 10:58:00,,0820.9,5.00,0.00,22.7,22.3,00.0,31.4,24.6,08.7,0000.0,0004.13,0007.21,0003.76
2023-01-06 10:59:00,,0820.9,5.00,0.00,22.7,21.9,00.0,31.4,24.5,08.7,0000.0,0004.15,0007.26,0003.77
